GALAXY 8

导读 | 星芒AI

GALAXY 8 卫星是由加拿大卫星通信公司Anik F2的后续型号,由波音卫星系统制造,于2005年发射。该卫星主要用于北美地区的直接到户(DTH)电视广播服务,提供高带宽和高容量的传输能力。GALAXY 8运行在C波段和Ku波段,支持多路视频和数据传输,增强了DirecTV等服务提供商的节目覆盖和质量。其先进设计提高了信号稳定性和抗干扰能力,为用户提供更优质的接收体验。

基本信息
目录编号:
25086
目录名称:
GALAXY 8
国际标识:
1997-078A
轨道中心:
EARTH
卫星名称:
GALAXY 8
卫星全名:
--
卫星状态:
在轨 (已飞行10232 天)
发射日期:
1997-12-08 UTC
国别 :
美国 (US)
星等 :
--
轨道信息
数据来源 国际轨道数据 AOE轨道数据
星历时间 2025-12-12T10:43:19+0800
1天前
查看轨道信息
2025-12-12T11:00:00+0800
1天前
查看轨道信息
半长轴 42327.092km 42327.007km
偏心率 0.0002324 0.0002408
轨道倾角 13.925° 13.925°
近地点辐角 12.651° 18.120°
升交点赤经 11.276° 11.277°
平近点角 356.143° 354.831°
近地点 35939.12km 35938.679km
远地点 35958.794km 35959.065km
周期 1444.400分钟 1444.395分钟
每日圈数 0.996954 0.996957
详细信息
使用方式:
暂无
2D轨道图
3D轨道图
轨道高度分析图
轨道倾角分析图
轨道综合分析图
查看轨道综合分析图